Погода в Дарасуне

Россия / Забайкальский край     51°39′02″N   113°58′00″E
темп.,
°C
ветер,
м/с
пор.,
м/с
влажн.,
%
обл.,
%
осадки,
мм/ч
давл.,
гПа
погр.,
м
8 марта, пн
пн800:00−12юв119889 0.0 102021
03:00−14юв1110092 0.0 101920
06:00−14ююв119891 0.0 101720
09:00−10з119395 0.0 101738
12:00−2зсз397487 0.0 1015631
15:00+1зсз8155772 0.0 10142441
18:00−3зсз71861100 0.1 10162126
21:00−8сз5147067 0.1 1022950
9 марта, вт
вт900:00−12сз312800 0.0 1027395
03:00−16зсз12870 0.0 103020
06:00−18ссз12900 0.0 103120
09:00−16ю11877 0.0 103122
12:00−8юв236687 0.0 1027304
15:00−3ююв586771 0.0 1022720
18:00−4ююв368423 0.0 1019521
21:00−9в119448 0.0 102021
10 марта, ср
ср1000:00−10юз0097100 0.0 101921
03:00−11з119699 0.0 102121
06:00−12зсз12920 0.0 102221
09:00−9з211880 0.0 1024383
12:00−3зсз611610 0.0 10241084
15:00−1зсз58560 0.0 10231197
18:00−2сз37680 0.0 1024639
21:00−10зюз11820 0.0 102821
11 марта, чт
чт1100:00−11ю11850 0.0 102921
03:00−12ююв11891 0.0 102821
06:00−13вюв119147 0.0 102821
09:00−10зсз008933 0.0 102821
12:00−2юз12720 0.0 1025325
15:00+1юз12680 0.0 1023502
18:00+1ю11770 0.0 102325
21:00−6юв11860 0.0 102521
12 марта, пт
пт1200:00−8ююв11920 0.0 102621
03:00−9ююв11920 0.0 102621
06:00−9ююв11891 0.0 102621
09:00−7ююв11871 0.0 102621
12:00+1ю24670 0.0 1021339
15:00+6ююз26540 0.0 1017773
18:00+4ю22690 0.0 101525
21:00−3ю228223 0.0 101721